Wind_Speed
3 2 3 2 2 4 7 2 3 2 4 3 3 7 6 6 5 7 17 15 9 13 14 11 13 14 14 13 14 13 12 13 14 15 15 15 14 12 11 11 10 9 10 9 7 6 6 6 6
2 1 5 3 3 7 9 4 0 2 6 5 3 5 4 3 6 6 6 8 5 13 12 12 13 13 14 14 13 12 12 12 13 14 14 13 11 10 9 9 8 7 8 7 6 6 6 5 4
4 3 8 6 3 7 11 5 1 4 5 6 4 6 3 1 5 3 5 8 9 9 10 11 12 13 15 13 11 11 12 12 14 13 12 11 10 9 9 7 6 7 8 9 9 8 7 7 5
5 8 11 7 9 1 7 0 2 2 4 3 4 4 3 3 6 6 4 7 8 6 8 11 12 13 13 12 11 11 12 12 13 12 12 11 11 8 8 8 8 8 10 12 12 12 12 11 9
6 8 9 3 12 14 8 2 5 5 5 4 4 4 4 5 6 8 4 4 4 6 8 11 13 12 12 11 11 11 12 12 12 11 11 11 11 10 9 8 9 12 13 12 13 13 14 17 17
8 7 4 10 8 12 6 6 8 10 6 8 8 7 7 7 9 7 5 4 5 7 9 12 13 11 11 11 12 11 12 12 12 11 12 12 11 11 12 13 14 14 13 13 13 14 16 21 23
9 6 6 18 7 1 9 7 10 9 10 9 11 10 9 9 9 7 5 6 7 7 11 11 12 12 11 11 12 12 12 11 11 11 12 13 14 16 15 15 14 13 13 13 14 17 17 20 24
11 5 2 10 5 8 11 10 12 13 12 11 11 13 11 11 10 7 5 7 8 8 12 12 12 13 12 12 12 13 13 13 13 13 16 17 15 13 13 13 13 14 14 15 17 16 17 19 21
10 8 6 1 8 7 2 18 13 11 13 13 13 14 10 13 12 8 6 7 8 11 12 11 13 14 14 14 13 14 15 16 17 17 17 15 14 13 13 12 13 12 13 13 13 13 14 16 18
8 12 12 13 8 11 9 10 9 14 15 14 11 14 12 12 13 9 6 8 12 13 12 12 13 15 15 15 14 15 16 18 18 15 20 16 12 10 11 11 10 10 13 14 13 11 11 14 15
9 11 9 8 6 9 4 7 12 9 14 14 14 13 13 12 12 10 6 8 14 15 14 14 15 16 16 16 16 16 16 16 16 6 15 13 11 10 10 9 8 7 8 12 13 12 9 13 11
13 11 10 4 7 8 20 5 8 12 15 14 14 14 14 15 13 12 9 9 13 15 16 15 16 16 17 16 16 16 16 15 15 12 10 10 9 10 8 8 7 8 11 13 13 11 11 14 15
15 14 5 8 9 15 6 6 10 10 13 13 15 14 16 15 15 15 11 13 16 16 17 17 16 16 18 17 16 15 13 11 10 9 8 8 6 9 8 8 9 14 14 16 20 18 18 18 18
17 20 17 20 21 7 1 15 9 8 5 11 13 14 16 17 16 16 12 13 17 17 17 17 17 17 18 17 16 15 12 10 9 8 6 5 5 6 7 10 8 12 13 15 16 15 15 14 11
20 24 25 23 21 10 10 31 13 19 3 8 10 13 16 17 18 17 16 16 19 19 18 17 18 17 17 16 14 12 10 9 7 6 5 5 4 5 7 7 8 9 11 13 10 11 10 11 12
26 27 25 21 17 15 14 26 17 10 17 11 6 11 15 17 18 20 19 18 22 21 19 18 17 17 17 16 14 12 11 10 7 5 4 4 5 4 2 4 6 8 12 13 11 7 9 10 14
30 26 24 22 19 14 15 22 17 16 14 9 8 10 17 17 17 19 18 19 23 22 21 20 19 17 17 16 15 13 11 9 7 5 4 4 4 3 1 3 8 6 11 15 11 8 7 13 15
25 27 20 21 18 22 17 25 19 25 23 12 10 8 10 13 15 18 19 22 25 24 22 20 19 19 18 17 15 14 12 10 8 7 6 5 4 2 3 6 8 10 12 14 10 10 10 13 16
24 24 24 19 15 19 18 32 21 25 20 15 4 10 7 9 13 15 19 23 28 25 23 21 19 19 18 17 16 15 13 11 10 9 9 7 5 3 2 4 7 8 10 12 12 10 9 13 15
28 26 23 16 24 31 23 29 22 19 14 15 11 8 11 9 11 13 17 23 27 25 23 22 21 20 20 19 18 15 13 11 11 10 9 7 6 5 3 3 4 5 7 9 9 10 8 12 11
32 29 27 22 28 31 19 29 24 19 17 19 18 14 13 9 12 14 18 22 27 24 22 21 21 22 23 21 17 15 14 14 13 9 9 9 7 5 4 2 3 4 4 5 6 7 8 10 11
37 30 34 28 30 29 20 27 18 22 21 24 28 24 20 12 12 13 17 23 26 25 23 23 25 25 25 21 19 18 18 15 11 10 11 9 6 5 4 3 1 2 2 2 3 5 6 8 11
30 34 38 35 32 28 30 33 26 22 19 28 31 29 17 18 12 13 17 25 27 25 23 24 25 26 24 22 22 20 16 14 13 13 11 8 7 6 5 4 3 1 0 1 0 3 3 6 9
25 34 35 40 32 44 34 31 18 27 25 26 23 15 21 17 13 13 17 25 26 25 24 23 23 25 24 24 22 20 18 16 15 12 9 8 8 7 4 4 4 3 2 3 2 1 1 4 6
35 37 39 40 46 49 42 39 33 18 24 20 19 22 19 22 14 15 19 25 26 24 21 20 22 22 23 22 20 18 16 14 12 9 8 8 8 8 6 5 5 6 5 3 4 4 4 4 6
41 37 47 47 40 38 39 41 36 32 25 19 20 26 27 24 23 17 18 25 26 24 21 19 20 21 20 19 18 16 12 10 8 8 8 9 10 10 9 7 6 6 8 4 5 7 6 5 5
44 45 36 30 27 27 28 29 28 31 40 35 32 28 33 30 24 20 20 22 26 24 19 17 19 20 19 18 17 14 12 9 10 11 11 12 12 12 10 9 8 5 7 9 6 8 10 8 6
47 37 40 41 36 33 23 25 23 21 31 30 37 38 32 33 23 22 23 22 23 26 24 22 21 20 21 20 16 12 8 8 10 11 11 12 13 14 13 12 10 8 6 9 11 9 10 11 9
48 45 43 38 38 31 21 20 18 19 20 24 30 32 37 33 29 19 22 23 24 25 26 25 24 23 19 17 15 12 12 12 12 12 14 16 16 14 14 16 14 13 10 8 10 11 8 11 14
48 49 45 45 41 36 25 17 17 24 26 27 27 32 29 31 31 23 18 17 23 27 27 26 25 24 22 20 17 15 13 12 9 9 12 13 14 14 15 15 16 14 14 12 10 10 13 13 14
Wind_Direction
141 152 138 106 107 151 123 281 83 215 196 182 182 149 127 140 134 109 135 150 110 104 109 105 111 117 117 120 119 118 117 113 110 115 116 114 110 106 101 98 94 90 89 87 91 84 79 77 71
38 4 169 128 97 192 125 117 133 172 216 184 171 129 148 173 186 183 173 175 111 107 108 110 116 117 119 121 122 122 120 112 114 116 116 114 113 105 100 104 101 90 78 77 73 59 53 56 61
39 94 167 164 75 50 100 132 289 188 204 186 162 143 164 197 174 180 212 117 129 93 99 110 117 117 118 122 126 125 119 115 112 110 115 118 114 104 105 99 86 78 77 68 58 52 46 36 25
68 119 161 180 146 291 112 223 187 177 189 147 177 155 142 158 162 169 155 112 97 87 111 118 119 118 118 130 126 126 118 116 114 118 120 116 108 108 98 89 81 69 64 68 64 54 48 30 360
107 150 165 356 175 71 37 233 253 233 214 228 212 215 193 170 162 165 177 133 106 112 126 127 120 120 125 130 128 128 121 118 120 119 114 103 100 96 90 87 81 81 79 69 63 51 40 26 19
134 155 254 298 93 26 313 256 248 254 232 241 247 237 200 180 164 169 177 159 131 141 133 130 124 127 130 131 136 133 126 125 120 115 105 102 98 95 94 85 79 77 72 64 63 53 49 39 41
172 191 294 317 104 58 275 249 262 251 255 247 243 225 211 184 168 169 176 155 143 144 138 132 133 135 135 142 144 139 133 129 121 113 100 99 100 97 92 85 82 78 68 64 60 56 56 52 50
181 200 277 330 196 313 223 256 271 257 253 243 241 225 205 188 172 176 174 152 155 150 144 140 139 141 143 151 145 137 126 120 114 110 107 104 103 99 93 93 84 75 71 63 55 51 53 56 59
183 197 196 229 241 273 45 288 260 259 246 239 228 216 219 203 183 177 180 162 161 156 148 149 149 146 148 146 139 126 124 114 111 112 110 103 103 103 97 88 81 74 71 68 62 55 53 49 62
206 224 197 191 215 271 192 283 240 237 255 246 233 230 215 221 203 181 188 176 170 156 153 153 156 147 147 141 135 128 122 114 114 139 119 109 103 101 97 87 73 58 41 55 50 31 46 51 54
207 207 230 159 188 235 224 323 272 255 252 247 231 229 231 218 217 200 204 197 177 163 157 159 155 150 146 141 136 131 128 124 122 116 93 108 112 105 92 87 85 79 65 51 45 18 39 60 62
199 229 183 223 256 258 263 137 297 274 265 250 233 234 233 221 220 213 209 192 183 171 162 164 156 153 146 139 135 132 131 129 125 124 124 125 114 100 78 74 44 49 48 45 42 36 28 23 41
199 188 180 105 310 237 213 203 149 284 263 249 236 234 235 227 228 224 225 200 184 179 168 168 160 159 148 143 141 138 137 140 146 141 131 112 89 79 69 44 30 39 30 335 21 20 10 15 18
200 217 218 199 212 230 163 278 279 221 319 265 240 236 238 237 219 226 224 208 188 181 176 174 167 166 153 149 149 143 143 139 143 138 127 108 96 75 63 67 54 39 33 25 20 11 5 7 6
220 218 221 219 221 217 171 225 231 200 230 251 250 252 244 238 230 219 221 205 189 185 182 177 172 169 160 155 154 154 159 162 161 144 130 111 86 71 68 80 80 55 39 34 25 8 20 8 360
221 225 227 202 199 227 220 242 166 268 274 266 260 258 249 242 233 225 210 202 196 186 185 179 174 173 166 163 164 165 164 166 169 153 138 121 108 90 92 80 63 55 40 26 32 41 20 26 10
225 225 229 214 219 238 226 257 246 216 209 293 283 272 242 236 235 228 209 200 199 190 189 184 184 179 176 173 172 171 172 171 171 167 163 153 134 113 8 47 322 0 30 25 42 46 25 27 30
239 225 220 220 242 244 210 252 254 297 185 188 327 298 245 227 231 224 211 200 197 195 191 188 188 186 183 181 183 188 190 184 181 179 171 166 170 177 322 339 16 17 23 19 46 35 42 50 40
231 221 220 212 222 228 223 247 262 273 228 197 265 318 279 234 223 220 210 203 196 197 194 195 195 194 190 191 197 196 193 185 180 174 173 179 203 236 301 335 3 17 17 21 37 45 49 39 35
229 212 222 203 227 237 192 251 264 276 260 279 313 191 276 247 237 220 210 202 198 197 199 198 196 196 197 197 200 200 200 196 190 187 182 192 214 247 283 323 356 38 25 26 32 40 30 34 37
217 218 192 223 235 235 210 211 247 277 295 280 275 285 254 242 229 217 207 202 199 197 198 201 198 198 199 201 202 203 205 206 199 189 194 205 221 247 279 339 10 38 35 34 36 36 35 29 44
220 211 187 192 238 246 232 233 225 215 243 266 281 287 258 235 225 221 211 203 198 197 202 203 200 200 199 197 199 203 208 208 199 200 207 203 215 244 272 303 337 57 28 39 30 23 55 50 46
220 210 206 194 212 225 235 237 230 246 230 235 269 280 251 246 213 221 213 201 198 203 205 210 207 202 193 192 200 204 206 207 208 214 212 204 217 244 274 291 277 276 150 296 52 15 69 58 48
219 213 214 210 214 216 208 243 234 223 243 228 265 279 280 267 209 209 212 200 199 207 213 214 211 206 196 200 207 209 209 212 213 217 217 219 231 249 279 304 260 245 271 281 249 357 354 45 43
219 210 211 218 220 220 211 215 218 217 252 248 241 275 276 272 238 209 207 200 206 213 217 218 215 212 209 205 208 215 216 215 221 223 228 228 235 246 271 307 290 254 236 288 285 297 321 358 29
224 219 220 218 221 231 225 230 230 187 203 242 241 261 266 263 258 225 211 205 209 217 221 215 217 213 214 216 218 219 223 219 226 236 242 245 249 256 266 284 304 285 256 258 272 269 299 330 356
220 224 219 220 230 233 236 251 235 222 211 202 208 232 253 256 249 234 224 211 215 220 222 208 215 213 211 213 215 213 212 218 235 246 253 259 252 252 255 263 261 277 269 254 264 260 277 305 326
225 226 216 212 213 224 234 237 253 245 221 229 221 208 221 247 246 241 230 221 218 219 218 214 214 217 214 213 211 219 234 244 249 254 257 256 257 257 253 262 260 257 273 261 258 262 261 290 305
217 212 222 225 224 214 218 242 240 257 258 245 224 227 215 223 245 234 228 227 221 216 218 216 211 214 213 219 229 230 238 252 264 265 262 257 257 256 254 262 265 258 256 263 268 267 270 271 280
222 220 222 222 217 211 204 212 207 227 242 250 218 219 224 213 230 232 236 231 231 225 222 219 212 213 217 222 225 233 241 256 255 265 270 271 263 258 254 258 269 265 262 260 265 268 256 255 261
Height
5879 5879 5880 5880 5884 5880 5879 5882 5882 5883 5883 5883 5883 5884 5885 5885 5886 5890 5889 5890 5891 5891 5892 5893 5893 5894 5895 5896 5896 5897 5898 5898 5899 5900 5901 5902 5904 5905 5906 5906 5906 5907 5907 5907 5907 5907 5906 5906 5906
5880 5880 5880 5880 5881 5872 5877 5882 5883 5882 5883 5883 5884 5887 5887 5888 5888 5890 5891 5892 5893 5891 5893 5893 5895 5896 5897 5898 5898 5899 5900 5900 5901 5902 5903 5905 5907 5908 5908 5909 5909 5909 5909 5909 5908 5908 5908 5907 5907
5880 5879 5881 5880 5881 5878 5879 5882 5885 5883 5884 5885 5886 5888 5889 5889 5890 5891 5892 5892 5894 5892 5894 5895 5896 5897 5898 5900 5900 5901 5902 5903 5903 5904 5905 5907 5908 5910 5910 5911 5911 5911 5911 5910 5910 5909 5909 5908 5908
5881 5880 5881 5881 5881 5879 5881 5883 5885 5885 5886 5888 5888 5889 5890 5890 5890 5892 5893 5893 5893 5894 5895 5896 5897 5899 5900 5902 5902 5903 5905 5905 5905 5906 5908 5909 5911 5912 5912 5913 5913 5913 5912 5912 5911 5911 5910 5909 5907
5880 5880 5881 5881 5876 5878 5880 5886 5886 5885 5888 5889 5890 5890 5891 5891 5892 5893 5894 5894 5895 5896 5896 5898 5898 5901 5902 5904 5904 5905 5907 5908 5908 5909 5910 5911 5913 5914 5915 5915 5914 5914 5914 5914 5914 5913 5911 5909 5905
5880 5882 5882 5869 5879 5881 5886 5886 5885 5886 5890 5889 5890 5891 5892 5892 5893 5894 5895 5895 5896 5897 5898 5899 5900 5902 5904 5905 5907 5908 5909 5910 5910 5911 5912 5914 5915 5916 5917 5916 5916 5917 5917 5917 5915 5914 5913 5911 5907
5882 5882 5882 5878 5883 5884 5888 5888 5886 5888 5887 5890 5890 5890 5892 5893 5894 5895 5896 5896 5897 5897 5899 5901 5902 5904 5906 5907 5909 5910 5911 5912 5913 5914 5916 5917 5918 5919 5919 5919 5919 5919 5919 5919 5919 5917 5915 5913 5912
5882 5883 5883 5879 5884 5886 5886 5887 5886 5887 5888 5889 5891 5891 5893 5893 5894 5895 5896 5897 5897 5898 5900 5902 5904 5905 5907 5909 5911 5912 5913 5913 5915 5917 5919 5920 5921 5921 5921 5921 5921 5923 5924 5923 5923 5922 5921 5918 5916
5880 5881 5882 5884 5886 5886 5885 5885 5885 5888 5888 5888 5890 5891 5893 5895 5895 5896 5896 5897 5898 5900 5901 5904 5905 5907 5909 5911 5912 5913 5914 5915 5918 5921 5921 5923 5923 5924 5924 5925 5925 5925 5925 5924 5923 5923 5923 5921 5920
5878 5878 5879 5878 5883 5884 5884 5884 5886 5886 5887 5887 5890 5891 5893 5895 5896 5896 5896 5897 5899 5900 5903 5905 5907 5909 5911 5912 5914 5916 5916 5919 5922 5916 5917 5922 5927 5927 5927 5927 5928 5927 5928 5928 5927 5925 5925 5924 5923
5876 5876 5879 5881 5880 5881 5882 5883 5884 5885 5885 5887 5888 5891 5892 5895 5896 5897 5897 5898 5900 5902 5904 5907 5909 5910 5912 5914 5916 5918 5919 5922 5923 5919 5921 5924 5930 5931 5931 5930 5928 5926 5926 5927 5929 5931 5927 5922 5924
5874 5875 5878 5879 5880 5881 5885 5881 5884 5884 5883 5885 5888 5889 5891 5894 5895 5896 5899 5899 5902 5904 5905 5908 5910 5912 5914 5916 5918 5920 5923 5925 5926 5928 5929 5931 5932 5931 5933 5931 5928 5928 5926 5928 5930 5930 5925 5925 5925
5873 5876 5878 5880 5872 5885 5885 5885 5886 5884 5883 5885 5886 5888 5890 5892 5895 5896 5899 5900 5902 5905 5907 5909 5911 5913 5915 5917 5920 5922 5925 5926 5928 5930 5932 5932 5932 5933 5934 5933 5929 5931 5929 5927 5925 5926 5924 5925 5925
5873 5875 5878 5882 5886 5883 5885 5884 5885 5883 5883 5885 5886 5886 5888 5891 5893 5896 5898 5901 5903 5905 5908 5910 5912 5914 5916 5919 5922 5924 5926 5928 5930 5931 5933 5934 5934 5934 5936 5936 5936 5935 5936 5933 5930 5929 5929 5929 5929
5870 5871 5875 5879 5882 5884 5886 5880 5879 5881 5880 5884 5884 5885 5886 5889 5892 5894 5897 5900 5903 5906 5909 5911 5913 5916 5918 5920 5923 5926 5928 5931 5933 5934 5935 5937 5937 5938 5938 5937 5936 5937 5938 5936 5935 5932 5932 5932 5930
5863 5866 5869 5875 5879 5880 5885 5875 5870 5879 5879 5885 5881 5883 5885 5887 5889 5893 5896 5900 5903 5906 5909 5912 5914 5917 5919 5922 5924 5927 5930 5932 5935 5936 5937 5938 5939 5941 5938 5942 5940 5939 5939 5940 5937 5936 5934 5933 5930
5858 5863 5867 5871 5875 5879 5882 5877 5873 5877 5879 5881 5881 5879 5882 5884 5888 5891 5895 5898 5903 5906 5909 5912 5915 5918 5920 5923 5926 5928 5931 5933 5936 5937 5938 5939 5941 5941 5941 5941 5943 5941 5940 5940 5938 5937 5936 5933 5931
5855 5859 5864 5870 5874 5876 5879 5877 5878 5875 5865 5873 5881 5880 5880 5882 5886 5890 5893 5897 5902 5905 5909 5912 5915 5918 5921 5924 5926 5929 5932 5934 5936 5938 5940 5941 5943 5944 5942 5942 5942 5942 5941 5942 5941 5939 5937 5936 5933
5852 5856 5861 5869 5873 5874 5878 5874 5879 5876 5874 5876 5876 5878 5880 5882 5885 5888 5891 5895 5900 5904 5909 5912 5916 5919 5921 5924 5927 5929 5932 5935 5937 5939 5941 5943 5944 5946 5946 5945 5944 5944 5945 5944 5941 5940 5939 5937 5935
5848 5852 5861 5867 5871 5870 5874 5871 5874 5874 5870 5872 5869 5859 5880 5882 5885 5887 5890 5894 5899 5904 5908 5912 5915 5918 5921 5923 5927 5930 5933 5936 5938 5940 5942 5943 5945 5946 5946 5947 5947 5947 5946 5944 5943 5941 5940 5938 5938
5841 5847 5855 5866 5863 5865 5870 5872 5865 5872 5875 5873 5876 5876 5880 5882 5884 5886 5889 5894 5898 5903 5908 5911 5914 5916 5919 5923 5926 5930 5933 5936 5938 5940 5942 5943 5944 5946 5947 5947 5948 5947 5947 5945 5944 5943 5942 5940 5938
5836 5845 5849 5859 5862 5863 5866 5868 5870 5878 5879 5876 5876 5875 5880 5881 5883 5885 5888 5892 5897 5902 5906 5909 5911 5914 5917 5922 5926 5929 5931 5935 5938 5940 5941 5943 5945 5946 5947 5946 5947 5948 5947 5947 5945 5944 5944 5942 5941
5835 5838 5843 5848 5854 5860 5862 5866 5872 5874 5877 5878 5877 5876 5875 5878 5880 5883 5886 5889 5895 5900 5905 5908 5911 5913 5917 5920 5924 5927 5931 5935 5937 5938 5941 5943 5944 5945 5946 5946 5947 5947 5947 5947 5946 5946 5946 5944 5943
5829 5831 5836 5842 5846 5846 5854 5857 5863 5869 5871 5876 5875 5876 5874 5874 5876 5880 5885 5889 5893 5898 5903 5906 5910 5913 5916 5919 5923 5927 5930 5933 5935 5938 5940 5942 5943 5944 5945 5945 5946 5947 5947 5947 5947 5946 5946 5945 5944
5818 5824 5829 5832 5831 5835 5848 5852 5857 5868 5868 5872 5872 5873 5876 5873 5875 5879 5883 5889 5893 5898 5901 5906 5909 5913 5916 5918 5922 5926 5929 5932 5935 5938 5940 5941 5942 5944 5944 5946 5946 5946 5946 5946 5946 5947 5946 5946 5945
5812 5817 5819 5822 5828 5835 5841 5840 5848 5859 5868 5870 5873 5870 5873 5875 5874 5878 5882 5887 5891 5896 5901 5904 5908 5911 5915 5918 5921 5925 5928 5932 5934 5936 5938 5940 5941 5942 5943 5945 5945 5945 5946 5946 5946 5946 5946 5946 5945
5805 5807 5821 5825 5832 5835 5839 5842 5848 5853 5857 5862 5867 5872 5869 5871 5873 5876 5880 5885 5889 5894 5899 5903 5906 5909 5913 5916 5920 5924 5927 5931 5933 5934 5936 5937 5938 5939 5940 5941 5942 5944 5944 5944 5945 5945 5945 5945 5945
5796 5809 5811 5815 5822 5827 5836 5839 5839 5845 5848 5853 5858 5864 5869 5868 5870 5872 5877 5882 5886 5891 5896 5900 5903 5908 5911 5914 5918 5922 5925 5928 5929 5931 5932 5933 5934 5936 5938 5938 5939 5940 5941 5941 5942 5943 5944 5944 5944
5788 5792 5801 5813 5816 5823 5833 5839 5840 5840 5843 5848 5852 5855 5862 5866 5866 5870 5873 5878 5883 5887 5892 5896 5900 5905 5910 5913 5917 5920 5922 5924 5926 5927 5927 5928 5929 5932 5933 5934 5936 5936 5937 5938 5940 5941 5942 5942 5941
5779 5788 5796 5799 5808 5816 5828 5835 5833 5837 5838 5841 5845 5850 5854 5861 5863 5866 5870 5875 5879 5884 5888 5894 5897 5902 5907 5910 5914 5917 5919 5921 5922 5923 5924 5924 5925 5927 5928 5930 5931 5932 5933 5934 5937 5938 5938 5937 5937